This demonstration page uses our WeatherBlox Daily Observations layout. Learn more.

Left ArrowRight Arrow

Hourly Observations for February 1, 2017

Temp ( °F °C ) Dew Point ( °F °C ) Humidity (%) Winds ( mph kmh ) Pressure ( in mb ) Visibility ( mi km ) Precip ( " mm )
12:53 am 00:53 Cloudy 40 4.4 32 undefined 73 73 WSW 6 9 30.02 1017 10 16 N/A
1:53 am 01:53 Cloudy 40 4.4 32 undefined 73 73 WSW 5 7 30.02 1017 10 16 N/A
2:53 am 02:53 Cloudy 40 4.4 33 0.6 77 77 W 3 6 30.01 1016 10 16 N/A
3:53 am 03:53 Cloudy 41 5 32 undefined 70 70 W 8 13 30.01 1016 10 16 N/A
4:53 am 04:53 Cloudy 40 4.4 32 undefined 73 73 W 7 11 30.03 1017 10 16 N/A
5:53 am 05:53 Cloudy 39 3.9 32 undefined 76 76 SW 5 7 30.03 1017 10 16 N/A
6:53 am 06:53 Cloudy with Light Rain 38 3.3 33 0.6 83 83 WSW 6 9 30.06 1018 10 16 N/A
7:53 am 07:53 Cloudy with Light Rain 37 2.8 35 1.7 93 93 WSW 3 6 30.08 1019 10 16 N/A
8:53 am 08:53 Cloudy with Light Rain 37 2.8 35 1.7 93 93 WSW 7 11 30.10 1019 10 16 0.01 0.25
9:07 am 09:07 Cloudy with Light Rain 37 2.8 35 1.7 93 93 W 6 9 30.09 1019 10 16 N/A
9:45 am 09:45 Cloudy 38 3.3 35 1.7 89 89 WSW 6 9 30.09 1019 10 16 N/A
9:53 am 09:53 Cloudy 38 3.3 35 1.7 89 89 SW 5 7 30.11 1020 10 16 N/A
10:53 am 10:53 Cloudy 39 3.9 35 1.7 86 86 SW 6 9 30.10 1019 10 16 N/A
11:53 am 11:53 Partly Cloudy 41 5 35 1.7 79 79 W 7 11 30.10 1019 10 16 N/A
12:53 pm 12:53 Cloudy 41 5 33 0.6 73 73 WSW 8 13 30.08 1019 10 16 N/A
1:53 pm 13:53 Cloudy 42 5.6 32 undefined 68 68 W 7 11 30.07 1018 10 16 N/A
2:53 pm 14:53 Cloudy 42 5.6 30 -1.1 62 62 WSW 9 15 30.10 1019 10 16 N/A
3:53 pm 15:53 Cloudy 42 5.6 30 -1.1 62 62 WSW 7 11 30.11 1020 10 16 N/A
4:53 pm 16:53 Cloudy 41 5 28 -2.2 60 60 W 8 13 30.13 1020 10 16 N/A
5:53 pm 17:53 Cloudy 40 4.4 29 -1.7 65 65 WSW 5 7 30.15 1021 10 16 N/A
6:53 pm 18:53 Mostly Clear 34 1.1 27 -2.8 76 76 WSW 5 7 30.16 1021 10 16 N/A
7:53 pm 19:53 Clear 37 2.8 28 -2.2 70 70 W 6 9 30.17 1022 10 16 N/A
8:53 pm 20:53 Mostly Clear 35 1.7 27 -2.8 72 72 WNW 3 6 30.19 1022 10 16 N/A
9:53 pm 21:53 Clear 34 1.1 27 -2.8 76 76 W 3 6 30.19 1023 10 16 N/A
10:53 pm 22:53 Partly Cloudy 35 1.7 28 -2.2 76 76 NW 6 9 30.20 1023 10 16 N/A
11:53 pm 23:53 Cloudy 36 2.2 27 -2.8 70 70 NW 8 13 30.20 1023 10 16 N/A

Powered by AerisWeather